Location: Amsterdam
(30.7274°N, 84.4357°W)
Time: 21:21:45
(UTC+00:00)

METEOR M2 - Visible Passes

Search period start: 16 March 2026 00:00
Search period end: 26 March 2026 00:00
Orbit: 817 x 824 km, 98.5° (Epoch: 16 March)

Date Brightness Start Highest point End Pass type
(mag) Time Alt. Az. Time Alt. Az. Time Alt. Az.
16 Mar ? 09:30:36 10° NNE 09:35:50 51° E 09:38:52 24° SSE visible
16 Mar ? 11:12:17 10° NNW 11:15:27 16° WNW 11:18:36 10° WSW visible
17 Mar ? 09:10:22 10° NE 09:15:07 31° E 09:18:08 19° SSE visible
17 Mar ? 10:50:41 10° NNW 10:55:00 25° WNW 10:59:20 10° WSW visible
18 Mar ? 08:50:34 10° NE 08:54:22 19° E 08:57:24 13° SE visible
18 Mar ? 10:29:32 10° N 10:34:31 40° WNW 10:38:46 14° SW visible
19 Mar ? 08:31:53 10° ENE 08:33:32 11° E 08:35:11 10° ESE visible
19 Mar ? 10:08:38 10° N 10:13:58 65° WNW 10:18:02 17° SSW visible
20 Mar ? 09:47:57 10° NNE 09:53:21 79° ESE 09:57:17 19° S visible
21 Mar ? 09:27:30 10° NNE 09:32:42 48° E 09:36:32 18° SSE visible
21 Mar ? 11:08:59 10° NNW 11:12:20 17° WNW 11:15:41 10° WSW visible
22 Mar ? 09:07:19 10° NE 09:11:58 29° E 09:15:47 14° SSE visible
22 Mar ? 10:47:28 10° NNW 10:51:54 27° WNW 10:56:19 10° SW visible
23 Mar ? 08:47:35 10° NE 08:51:12 18° E 08:54:47 10° SE visible
23 Mar ? 10:26:21 10° N 10:31:24 42° WNW 10:36:24 10° SW visible
24 Mar ? 08:29:26 10° E 08:30:22 10° E 08:31:18 10° ESE visible
24 Mar ? 10:05:29 10° N 10:10:50 69° WNW 10:15:38 13° SSW visible
25 Mar ? 09:44:50 10° NNE 09:50:12 74° ESE 09:54:52 14° S visible
